Regional Weather Roundup
Issued by NWS

Home | Current Version | Previous Version | Text Only | Print | Product List | Glossary Off
Versions: 1 2 3 4 5 6 7 8 9 10 11 12 13 14 15 16 17 18 19 20 21 22 23 24 25 26 27 28 29 30 31 32 33 34 35 36 37 38 39 40 41 42 43 44 45 46 47 48 49 50

000
ASUS43 KIND 110809
RWRIN

WEATHER ROUNDUP FOR INDIANA
NATIONAL WEATHER SERVICE INDIANAPOLIS IN
300 AM EST MON DEC 11 2017

NOTE: "FAIR" INDICATES FEW OR NO CLOUDS BELOW 12,000 FEET WITH NO
SIGNIFICANT WEATHER AND/OR OBSTRUCTIONS TO VISIBILITY.

* - STATION DOES NOT REPORT WEATHER SUCH AS PRECIPITATION OR FOG.

+ - STATION NOT QUALITY CONTROLLED BY THE NATIONAL WEATHER SERVICE.
    USE DATA WITH CAUTION...ESPECIALLY DEWPOINT AND RELATIVE
    HUMIDITY OBSERVATIONS.

INZ001>003-010>013-019-020-110900-
NORTHWEST INDIANA

CITY           SKY/WX    TMP DP  RH WIND       PRES   REMARKS
GARY /AIRPORT/ CLEAR     24  18  77 CALM      30.07F
KNOX *+        MOCLDY    25  21  86 W6        30.07R WCI  18
LA PORTE +     CLOUDY    27  21  76 W5        30.06R WCI  22
MICHIGAN CITY+ CLOUDY    30  21  69 SW5       30.05S WCI  25
MONTICELLO +   CLEAR     20  17  87 CALM      30.07S
RENSSELAER +   CLOUDY    21  18  86 CALM      30.07F
VALPARAISO     CLOUDY    27  19  72 SW6       30.06S WCI  20

$$

LMZ046-743>745-110900-
SOUTHERN LAKE MICHIGAN

STATION/POSITION TIME  TEMP    WIND        PRES    WAVE
                       AIR SEA DIR/SP/G            HT
                 (UTC) (F)     (DEG/KT/KT) (MB)    (FT)
BURNS HARBOR     0740   31     290/  4/  7 1018.3S
MICHIGAN CITY    0740   31     250/ 10/ 13   N/A

$$

INZ004-005-014>016-021>024-110900-
NORTH CENTRAL INDIANA

CITY           SKY/WX    TMP DP  RH WIND       PRES   REMARKS
GOSHEN         CLOUDY    28  22  78 W5        30.04R WCI  23
LOGANSPORT +   CLOUDY    23  19  86 W5        30.08R WCI  17
PERU/GRISSOM   CLOUDY    21  19  89 W8        30.05F WCI  12
ROCHESTER +    PTCLDY    28  23  80 W3        30.06S
SOUTH BEND     CLOUDY    27  22  81 SW5       30.04F WCI  22
WARSAW +       CLOUDY    28  23  80 W5        30.05S WCI  23

$$

INZ006>009-017-018-025>027-110900-
NORTHEAST INDIANA

CITY           SKY/WX    TMP DP  RH WIND       PRES   REMARKS
AUBURN +       CLOUDY    30  23  74 CALM      30.03S
FORT WAYNE     PTCLDY    25  20  81 W7        30.05R WCI  17
HUNTINGTON +   MOCLDY    27  22  80 W3        30.05S
KENDALLVILLE + CLOUDY    28  23  84 W5        30.03R WCI  22

$$

INZ028-029-035-036-043>045-051>053-110900-
WEST CENTRAL INDIANA

CITY           SKY/WX    TMP DP  RH WIND       PRES   REMARKS
CRAWFORDSVL +  CLOUDY    18  18 100 CALM        N/A
GREENCASTLE +  CLEAR     23  19  86 CALM      30.09S
LAFAYETTE      CLOUDY    20  18  92 CALM      30.09S
TERRE HAUTE    CLEAR     21  17  84 CALM      30.10F

$$

INZ030>032-037>040-046>048-054>057-064-065-110900-
CENTRAL INDIANA

CITY           SKY/WX    TMP DP  RH WIND       PRES   REMARKS
FRANKFORT +    CLOUDY    20  18  91 CALM      30.08F
GREENWOOD *+   CLEAR     27  23  83 CALM      30.08F
INDIANAPOLIS   CLEAR     24  19  81 W5        30.09S WCI  18
-EAGLE CREEK   CLEAR     25  19  78 NW6       30.07F WCI  18
KOKOMO +       CLEAR     21  18  88 SW7       30.07S WCI  12
MARION +       CLEAR     23  20  86 W3        30.06F FOG
MT COMFORT *+  CLEAR     19  19 100 CALM      30.08R
SHELBYVILLE    CLEAR     23  18  81 W3        30.08S
ZIONSVILLE +   CLOUDY    21  19  91 CALM      30.07S

$$

INZ033-034-041-042-049-050-058-059-110900-
EAST CENTRAL INDIANA

CITY           SKY/WX    TMP DP  RH WIND       PRES   REMARKS
MUNCIE         PTCLDY    29  20  69 CALM      30.06S

$$

INZ060-061-067>069-081>083-085>088-110900-
SOUTHWEST INDIANA

CITY           SKY/WX    TMP DP  RH WIND       PRES   REMARKS
EVANSVILLE     CLEAR     27  25  92 CALM      30.14S
HUNTINGBURG +  CLEAR     27  23  85 CALM      30.13S
WASHINGTON +   CLEAR     26  21  81 W3        30.12S

$$

INZ062-063-066-070>080-084-089>092-110900-
SOUTH CENTRAL AND SOUTHEAST INDIANA

CITY           SKY/WX    TMP DP  RH WIND       PRES   REMARKS
BEDFORD +      CLEAR     30  23  74 CALM      30.09F
BLOOMINGTON    CLEAR     24  18  77 CALM      30.09F
MADISON *+     CLEAR     30  23  74 CALM      30.11F
NORTH VERNON + CLEAR     27  19  74 CALM      30.10F
SEYMOUR +      CLEAR     27  21  80 CALM      30.11S

$$





USA.gov is the U.S. government's official web portal to all federal, state and local government web resources and services.